FW5426 Weather Reports


Display with metric or nautical units.
time (UTC)temp
F
wind
direction
speed
MPH
gust
MPH
rain 1hr
in
rain 24hr
in
rain mn
in
humidity
%
barometer
mb
20260902163241 88 65 1.0 6.0 0.00 0.00 0.00 33 1021.6
20260902162514 87 343 1.0 4.0 0.00 0.00 0.00 32 1021.5
20260902162012 87 277 2.0 5.0 0.00 0.00 0.00 32 1021.6
20260902161510 87 224 2.0 5.0 0.00 0.00 0.00 32 1021.6
20260902161010 87 273 2.0 5.0 0.00 0.00 0.00 34 1021.6
20260902160736 87 270 1.0 4.0 0.00 0.00 0.00 35 1021.6
20260902160232 86 275 1.0 4.0 0.00 0.00 0.00 36 1021.6
20260902155506 86 230 1.0 4.0 0.00 0.00 0.00 36 1021.5
20260902155005 86 126 2.0 5.0 0.00 0.00 0.00 36 1021.4
20260902154734 85 127 1.0 5.0 0.00 0.00 0.00 36 1021.5
20260902154004 85 213 1.0 4.0 0.00 0.00 0.00 37 1021.4
20260902153504 85 254 1.0 4.0 0.00 0.00 0.00 39 1021.4
20260902153001 85 284 1.0 3.0 0.00 0.00 0.00 39 1021.4
20260902152502 85 185 0.0 2.0 0.00 0.00 0.00 39 1021.4
20260902152002 84 186 1.0 4.0 0.00 0.00 0.00 39 1021.4
20260902151502 84 132 1.0 4.0 0.00 0.00 0.00 39 1021.4
20260902151002 83 169 1.0 5.0 0.00 0.00 0.00 41 1021.4
20260902150723 83 170 1.0 5.0 0.00 0.00 0.00 41 1021.4
20260902150002 82 123 0.0 3.0 0.00 0.00 0.00 42 1021.4
20260902145502 81 149 1.0 2.0 0.00 0.00 0.00 43 1021.4
20260902145002 80 144 1.0 3.0 0.00 0.00 0.00 43 1021.4
20260902144729 80 203 1.0 4.0 0.00 0.00 0.00 44 1021.4
20260902144002 80 153 1.0 4.0 0.00 0.00 0.00 45 1021.3
20260902143502 79 150 2.0 6.0 0.00 0.00 0.00 45 1021.3
20260902143001 79 113 3.0 6.0 0.00 0.00 0.00 46 1021.3
20260902142502 79 105 3.0 7.0 0.00 0.00 0.00 46 1021.3
20260902142002 78 122 3.0 7.0 0.00 0.00 0.00 46 1021.3
20260902141502 78 144 2.0 4.0 0.00 0.00 0.00 47 1021.1
20260902141000 77 134 1.0 4.0 0.00 0.00 0.00 46 1021.1
20260902140501 77 123 1.0 4.0 0.00 0.00 0.00 46 1021.1
20260902140004 76 112 1.0 4.0 0.00 0.00 0.00 46 1021.1
20260902135501 76 121 1.0 3.0 0.00 0.00 0.00 45 1021.1
20260902135001 75 122 1.0 4.0 0.00 0.00 0.00 46 1021.0
20260902134502 75 134 2.0 4.0 0.00 0.00 0.00 45 1020.9
20260902134002 75 80 1.0 4.0 0.00 0.00 0.00 45 1021.0
20260902133501 75 104 1.0 3.0 0.00 0.00 0.00 46 1020.8
20260902133002 74 105 1.0 3.0 0.00 0.00 0.00 46 1020.7
20260902132723 74 52 1.0 3.0 0.00 0.00 0.00 47 1020.7
20260902132223 73 16 0.0 2.0 0.00 0.00 0.00 47 1020.6
20260902131501 73 28 0.0 1.0 0.00 0.00 0.00 48 1020.5
20260902131001 73 54 0.0 1.0 0.00 0.00 0.00 48 1020.5
20260902130502 72 54 0.0 2.0 0.00 0.00 0.00 49 1020.5
20260902130216 72 54 1.0 3.0 0.00 0.00 0.00 48 1020.5
20260902130204 72 54 1.0 3.0 0.00 0.00 0.00 48 1020.5
20260902125001 72 54 1.0 3.0 0.00 0.00 0.00 48 1020.2
20260902124724 72 53 0.0 3.0 0.00 0.00 0.00 49 1020.2
20260902124001 72 44 0.0 1.0 0.00 0.00 0.00 48 1020.1
20260902123724 73 42 0.0 2.0 0.00 0.00 0.00 48 1020.1
20260902123001 73 65 1.0 4.0 0.00 0.00 0.00 48 1020.0
20260902122501 73 65 1.0 4.0 0.00 0.00 0.00 49 1020.0
20260902122223 73 253 0.0 0.0 0.00 0.00 0.00 49 1019.9
20260902121502 73 253 0.0 0.0 0.00 0.00 0.00 49 1019.9
20260902121001 73 253 0.0 0.0 0.00 0.00 0.00 49 1019.9
20260902120501 73 253 0.0 0.0 0.00 0.00 0.00 48 1020.0
20260902120001 73 253 0.0 3.0 0.00 0.00 0.00 48 1020.0
20260902115502 73 255 0.0 3.0 0.00 0.00 0.00 48 1019.9
20260902115001 72 262 0.0 4.0 0.00 0.00 0.00 48 1020.0
20260902114501 72 169 0.0 4.0 0.00 0.00 0.00 48 1019.8
20260902114000 72 198 0.0 0.0 0.00 0.00 0.00 48 1019.8
20260902113501 72 290 0.0 0.0 0.00 0.00 0.00 48 1019.9
20260902113443 72 290 0.0 2.0 0.00 0.00 0.00 47 1019.8
20260902112501 72 290 0.0 3.0 0.00 0.00 0.00 47 1019.8
20260902112001 73 290 0.0 3.0 0.00 0.00 0.00 47 1019.9
20260902111501 73 94 0.0 2.0 0.00 0.00 0.00 47 1019.7
20260902111001 73 105 1.0 4.0 0.00 0.00 0.00 46 1019.7
20260902110502 73 105 2.0 4.0 0.00 0.00 0.00 46 1019.8
20260902110002 74 96 2.0 4.0 0.00 0.00 0.00 46 1019.8
20260902105500 74 94 1.0 3.0 0.00 0.00 0.00 45 1019.7
20260902105001 74 65 0.0 3.0 0.00 0.00 0.00 45 1019.7
20260902104501 75 44 0.0 3.0 0.00 0.00 0.00 45 1019.6
20260902103955 75 51 1.0 3.0 0.00 0.00 0.00 44 1019.6
20260902103449 75 25 2.0 5.0 0.00 0.00 0.00 44 1019.7
20260902102949 75 19 4.0 8.0 0.00 0.00 0.00 44 1019.7
20260902102449 76 46 3.0 8.0 0.00 0.00 0.00 43 1019.7
20260902102212 76 49 1.0 5.0 0.00 0.00 0.00 44 1019.7
20260902101450 76 48 0.0 1.0 0.00 0.00 0.00 44 1019.7
20260902100950 76 37 0.0 1.0 0.00 0.00 0.00 44 1019.6
20260902100447 76 70 1.0 3.0 0.00 0.00 0.00 43 1019.6
20260902095946 76 70 1.0 3.0 0.00 0.00 0.00 43 1019.6
20260902095446 76 56 1.0 3.0 0.00 0.00 0.00 43 1019.6
20260902094946 76 251 0.0 3.0 0.00 0.00 0.00 43 1019.6
20260902094446 77 251 1.0 3.0 0.00 0.00 0.00 43 1019.6
20260902093946 77 238 1.0 3.0 0.00 0.00 0.00 43 1019.5
20260902093711 77 33 1.0 3.0 0.00 0.00 0.00 43 1019.5
20260902092942 77 13 1.0 3.0 0.00 0.00 0.00 43 1019.5
20260902092440 77 15 1.0 3.0 0.00 0.00 0.00 43 1019.5
20260902091937 77 11 0.0 2.0 0.00 0.00 0.00 43 1019.5
20260902091438 77 11 0.0 0.0 0.00 0.00 0.00 43 1019.6
20260902091400 77 11 0.0 0.0 0.00 0.00 0.00 42 1019.8
20260902091356 77 11 0.0 0.0 0.00 0.00 0.00 42 1019.6
20260902085932 77 11 0.0 0.0 0.00 0.00 0.00 42 1019.8
20260902085432 77 11 0.0 0.0 0.00 0.00 0.00 42 1019.7
20260902085150 77 11 0.0 0.0 0.00 0.00 0.00 42 1019.6
20260902084431 77 355 0.0 0.0 0.00 0.00 0.00 41 1019.6
20260902083932 78 355 0.0 0.0 0.00 0.00 0.00 41 1019.6
20260902083652 78 245 0.0 0.0 0.00 0.00 0.00 41 1019.6
20260902082933 78 348 0.0 0.0 0.00 0.00 0.00 41 1019.6
20260902082430 78 348 0.0 0.0 0.00 0.00 0.00 41 1019.7
20260902081929 78 348 0.0 0.0 0.00 0.00 0.00 41 1019.6
20260902081430 78 348 0.0 0.0 0.00 0.00 0.00 40 1019.6
20260902080930 79 346 0.0 0.0 0.00 0.00 0.00 40 1019.7
20260902080429 79 25 0.0 0.0 0.00 0.00 0.00 40 1019.6
20260902075930 79 25 0.0 0.0 0.00 0.00 0.00 39 1019.6
20260902075429 79 25 0.0 1.0 0.00 0.00 0.00 39 1019.7
20260902074930 80 25 0.0 3.0 0.00 0.00 0.00 39 1019.9
20260902074430 80 25 0.0 3.0 0.00 0.00 0.00 38 1020.0
20260902073930 80 355 0.0 0.0 0.00 0.00 0.00 39 1019.9
20260902073429 80 355 0.0 1.0 0.00 0.00 0.00 38 1019.9
20260902072930 80 355 1.0 2.0 0.00 0.00 0.00 38 1019.9
20260902072429 80 355 1.0 3.0 0.00 0.00 0.00 38 1019.9
20260902071930 80 96 2.0 4.0 0.00 0.00 0.00 38 1019.9
20260902071430 80 63 2.0 4.0 0.00 0.00 0.00 38 1019.9
20260902070930 80 49 2.0 4.0 0.00 0.00 0.00 38 1019.9
20260902070430 80 38 2.0 4.0 0.00 0.00 0.00 37 1019.9
20260902065928 80 61 2.0 4.0 0.00 0.00 0.00 37 1019.7
20260902065430 80 58 1.0 3.0 0.00 0.00 0.00 37 1019.7
20260902064930 80 348 2.0 4.0 0.00 0.00 0.00 37 1019.8
20260902064429 80 345 1.0 4.0 0.00 0.00 0.00 36 1019.7
20260902063928 80 340 0.0 2.0 0.00 0.00 0.00 36 1019.8
20260902063652 81 94 0.0 3.0 0.00 0.00 0.00 36 1019.8
20260902062929 81 94 1.0 6.0 0.00 0.00 0.00 36 1019.8
20260902062429 81 93 2.0 6.0 0.00 0.00 0.00 35 1019.8
20260902061930 82 80 2.0 4.0 0.00 0.00 0.00 35 1019.9
20260902061428 82 90 1.0 4.0 0.00 0.00 0.00 35 1019.8
20260902060929 82 101 1.0 6.0 0.00 0.00 0.00 35 1019.8
20260902060429 82 186 0.0 6.0 0.00 0.00 0.00 35 1019.8
20260902060151 82 61 1.0 4.0 0.00 0.00 0.00 35 1019.8
20260902055428 82 61 2.0 5.0 0.00 0.00 0.00 34 1019.8
20260902054930 83 57 2.0 6.0 0.00 0.00 0.00 34 1019.8
20260902054430 83 42 1.0 6.0 0.00 0.00 0.00 33 1019.8
20260902054156 84 123 3.0 7.0 0.00 0.00 0.00 33 1019.7
20260902053429 84 168 4.0 7.0 0.00 0.00 0.00 33 1019.8
20260902052928 85 144 3.0 6.0 0.00 0.00 0.00 32 1019.7
20260902052430 85 121 2.0 6.0 0.00 0.00 0.00 32 1019.7
20260902051928 85 161 1.0 5.0 0.00 0.00 0.00 32 1019.8
20260902051430 85 170 1.0 4.0 0.00 0.00 0.00 32 1019.6
20260902050930 85 195 1.0 4.0 0.00 0.00 0.00 32 1019.7
20260902050429 85 188 1.0 4.0 0.00 0.00 0.00 32 1019.6
20260902050151 85 179 2.0 4.0 0.00 0.00 0.00 32 1019.6
20260902045429 85 188 2.0 5.0 0.00 0.00 0.00 33 1019.7
20260902044929 84 240 1.0 5.0 0.00 0.00 0.00 33 1019.7
20260902044429 83 188 0.0 0.0 0.00 0.00 0.00 34 1019.7
20260902043929 83 341 0.0 0.0 0.00 0.00 0.00 34 1019.6
20260902043429 83 341 0.0 0.0 0.00 0.00 0.00 35 1019.7
20260902043207 83 341 0.0 0.0 0.00 0.00 0.00 34 1019.6
20260902042932 83 341 0.0 0.0 0.00 0.00 0.00 34 1019.6
20260902042151 83 341 0.0 0.0 0.00 0.00 0.00 35 1019.6
20260902041650 83 341 0.0 0.0 0.00 0.00 0.00 35 1019.6
20260902041153 84 341 0.0 0.0 0.00 0.00 0.00 34 1019.5
20260902040429 84 341 0.0 0.0 0.00 0.00 0.00 33 1019.3
20260902035929 84 341 0.0 0.0 0.00 0.00 0.00 32 1019.3
20260902035651 85 341 0.0 0.0 0.00 0.00 0.00 32 1019.3
20260902034929 85 341 0.0 0.0 0.00 0.00 0.00 32 1019.3
20260902034430 85 341 0.0 0.0 0.00 0.00 0.00 32 1019.3
20260902033930 86 341 0.0 0.0 0.00 0.00 0.00 31 1019.3
20260902033429 86 341 0.0 0.0 0.00 0.00 0.00 31 1019.2
20260902032929 86 341 0.0 0.0 0.00 0.00 0.00 31 1019.2
20260902032429 86 341 0.0 0.0 0.00 0.00 0.00 31 1019.2
20260902032149 86 341 0.0 1.0 0.00 0.00 0.00 30 1019.1
20260902031429 87 341 0.0 2.0 0.00 0.00 0.00 30 1019.0
20260902031147 87 336 0.0 2.0 0.00 0.00 0.00 30 1018.9
20260902030653 87 355 0.0 1.0 0.00 0.00 0.00 30 1018.8
20260902025929 87 347 0.0 1.0 0.00 0.00 0.00 30 1018.8
20260902025429 87 329 0.0 0.0 0.00 0.00 0.00 29 1018.7
20260902024929 87 329 0.0 3.0 0.00 0.00 0.00 29 1018.6
20260902024429 87 323 1.0 4.0 0.00 0.00 0.00 29 1018.4
20260902023929 87 317 1.0 4.0 0.00 0.00 0.00 29 1018.2
20260902023429 88 329 1.0 3.0 0.00 0.00 0.00 29 1018.1
20260902022929 88 338 2.0 5.0 0.00 0.00 0.00 29 1018.0
20260902022430 88 334 2.0 5.0 0.00 0.00 0.00 29 1017.9
20260902021929 88 325 2.0 5.0 0.00 0.00 0.00 29 1018.0
20260902021657 88 11 2.0 5.0 0.00 0.00 0.00 29 1017.9
20260902020929 88 317 2.0 4.0 0.00 0.00 0.00 29 1017.8
20260902020429 88 309 2.0 5.0 0.00 0.00 0.00 29 1017.8
20260902015929 88 301 3.0 5.0 0.00 0.00 0.00 29 1017.8
20260902015430 89 313 3.0 8.0 0.00 0.00 0.00 29 1017.8
20260902015149 89 270 3.0 9.0 0.00 0.00 0.00 29 1017.8
20260902014429 89 308 4.0 10.0 0.00 0.00 0.00 29 1017.7
20260902014148 89 312 5.0 10.0 0.00 0.00 0.00 29 1017.6
20260902013429 89 306 4.0 9.0 0.00 0.00 0.00 29 1017.6
20260902012928 89 316 4.0 9.0 0.00 0.00 0.00 29 1017.6
20260902012429 89 0 5.0 10.0 0.00 0.00 0.00 29 1017.6
20260902011925 89 344 5.0 10.0 0.00 0.00 0.00 29 1017.6
20260902011423 90 317 5.0 11.0 0.00 0.00 0.00 29 1017.4
20260902011402 90 311 5.0 11.0 0.00 0.00 0.00 29 1017.4
20260902010910 90 324 5.0 12.0 0.00 0.00 0.00 28 1017.6
20260902005923 91 5 6.0 12.0 0.00 0.00 0.00 28 1017.6
20260902005424 91 311 5.0 10.0 0.00 0.00 0.00 28 1017.4
20260902004923 91 319 4.0 10.0 0.00 0.00 0.00 28 1017.3
20260902004651 91 284 5.0 11.0 0.00 0.00 0.00 28 1017.4
20260902004145 92 291 5.0 11.0 0.00 0.00 0.00 28 1017.4
20260902003421 92 281 5.0 11.0 0.00 0.00 0.00 28 1017.4
20260902002922 92 292 7.0 12.0 0.00 0.00 0.00 28 1017.3
20260902002421 92 271 7.0 12.0 0.00 0.00 0.00 27 1017.4
20260902002145 92 288 6.0 12.0 0.00 0.00 0.00 27 1017.4
20260902001419 93 272 5.0 11.0 0.00 0.00 0.00 27 1017.4
20260902001140 93 325 5.0 11.0 0.00 0.00 0.00 27 1017.4
20260902000417 93 325 5.0 11.0 0.00 0.00 0.00 27 1017.4
20260901235917 93 281 4.0 11.0 0.00 0.00 0.00 27 1017.6
20260901235417 93 305 3.0 11.0 0.00 0.00 0.00 27 1017.6
20260901234915 93 108 4.0 9.0 0.00 0.00 0.00 25 1017.6
20260901234640 94 259 4.0 10.0 0.00 0.00 0.00 26 1017.6
20260901233915 93 242 5.0 12.0 0.00 0.00 0.00 26 1017.7
20260901233414 93 262 6.0 12.0 0.00 0.00 0.00 26 1017.6
20260901233135 94 289 5.0 10.0 0.00 0.00 0.00 25 1017.4
20260901232415 94 258 6.0 11.0 0.00 0.00 0.00 25 1017.6
20260901231915 94 269 7.0 13.0 0.00 0.00 0.00 25 1017.4
20260901231411 93 275 7.0 13.0 0.00 0.00 0.00 25 1017.4
20260901231357 93 264 6.0 13.0 0.00 0.00 0.00 25 1017.4
20260901230411 94 317 5.0 10.0 0.00 0.00 0.00 25 1017.3
20260901225912 93 269 7.0 15.0 0.00 0.00 0.00 25 1017.4
20260901225411 94 315 7.0 15.0 0.00 0.00 0.00 25 1017.6
20260901224911 93 283 6.0 14.0 0.00 0.00 0.00 25 1017.6
20260901224630 93 239 5.0 14.0 0.00 0.00 0.00 25 1017.6
20260901223911 93 355 4.0 12.0 0.00 0.00 0.00 25 1017.7
20260901223631 94 344 4.0 13.0 0.00 0.00 0.00 25 1017.8
20260901222911 94 317 5.0 13.0 0.00 0.00 0.00 25 1017.9
20260901222411 93 333 6.0 12.0 0.00 0.00 0.00 25 1017.8
20260901221911 93 324 8.0 14.0 0.00 0.00 0.00 25 1017.9
20260901221411 93 14 8.0 14.0 0.00 0.00 0.00 25 1017.9
20260901220911 94 316 5.0 13.0 0.00 0.00 0.00 25 1017.9
20260901220409 94 319 5.0 13.0 0.00 0.00 0.00 25 1017.9
20260901215910 93 339 5.0 12.0 0.00 0.00 0.00 26 1017.9
20260901215408 93 315 6.0 14.0 0.00 0.00 0.00 26 1018.0
20260901214907 93 281 5.0 14.0 0.00 0.00 0.00 26 1018.0
20260901214407 93 321 3.0 12.0 0.00 0.00 0.00 26 1018.0
20260901213907 93 313 2.0 12.0 0.00 0.00 0.00 26 1018.2
20260901213610 93 334 2.0 9.0 0.00 0.00 0.00 25 1018.2
20260901213601 93 275 1.0 7.0 0.00 0.00 0.00 26 1018.2
20260901212624 93 186 4.0 12.0 0.00 0.00 0.00 25 1018.2
20260901211907 93 181 5.0 12.0 0.00 0.00 0.00 26 1018.4
20260901211404 93 94 4.0 10.0 0.00 0.00 0.00 25 1018.4
20260901211128 94 126 3.0 10.0 0.00 0.00 0.00 25 1018.6
20260901210403 93 294 4.0 10.0 0.00 0.00 0.00 25 1018.6
20260901205903 93 137 3.0 10.0 0.00 0.00 0.00 26 1018.9
20260901205403 93 181 1.0 9.0 0.00 0.00 0.00 26 1019.0
20260901204902 92 114 4.0 11.0 0.00 0.00 0.00 26 1018.9
20260901204403 93 149 4.0 11.0 0.00 0.00 0.00 26 1019.0
20260901203903 93 132 2.0 11.0 0.00 0.00 0.00 26 1019.0
20260901203403 94 144 1.0 6.0 0.00 0.00 0.00 26 1019.2
20260901202903 94 272 1.0 5.0 0.00 0.00 0.00 26 1019.2
20260901202402 93 61 1.0 5.0 0.00 0.00 0.00 26 1019.3
20260901201901 93 124 2.0 7.0 0.00 0.00 0.00 26 1019.5
20260901201402 92 121 2.0 7.0 0.00 0.00 0.00 27 1019.6
20260901201125 92 99 2.0 6.0 0.00 0.00 0.00 27 1019.7
20260901200353 91 217 4.0 10.0 0.00 0.00 0.00 27 1019.7
20260901195848 91 211 5.0 10.0 0.00 0.00 0.00 28 1019.7
20260901195342 91 209 6.0 11.0 0.00 0.00 0.00 28 1019.8
20260901194836 90 202 4.0 11.0 0.00 0.00 0.00 28 1019.9
20260901194329 91 207 2.0 10.0 0.00 0.00 0.00 28 1019.9
20260901193831 91 295 2.0 10.0 0.00 0.00 0.00 28 1020.0
20260901193330 90 119 4.0 10.0 0.00 0.00 0.00 28 1020.1
20260901192830 90 136 6.0 11.0 0.00 0.00 0.00 29 1020.2
20260901192546 90 211 4.0 11.0 0.00 0.00 0.00 28 1020.2
20260901191831 91 184 3.0 10.0 0.00 0.00 0.00 28 1020.4
20260901191330 91 174 3.0 8.0 0.00 0.00 0.00 29 1020.4
20260901190831 89 119 2.0 9.0 0.00 0.00 0.00 29 1020.5
20260901190331 89 121 2.0 9.0 0.00 0.00 0.00 29 1020.6
20260901185831 88 97 2.0 9.0 0.00 0.00 0.00 30 1020.6
20260901185330 88 15 2.0 7.0 0.00 0.00 0.00 30 1020.7
20260901184830 89 78 3.0 10.0 0.00 0.00 0.00 29 1020.8
20260901184331 89 236 5.0 11.0 0.00 0.00 0.00 29 1020.8
20260901183829 89 152 5.0 12.0 0.00 0.00 0.00 29 1020.7
20260901183329 89 156 4.0 12.0 0.00 0.00 0.00 30 1020.6
20260901182829 88 62 3.0 9.0 0.00 0.00 0.00 30 1020.8
20260901182547 88 153 3.0 10.0 0.00 0.00 0.00 31 1020.9
20260901181829 88 237 4.0 10.0 0.00 0.00 0.00 30 1021.0
20260901181548 88 283 5.0 10.0 0.00 0.00 0.00 31 1020.9
20260901180818 88 232 5.0 10.0 0.00 0.00 0.00 31 1020.9
20260901180535 87 161 4.0 10.0 0.00 0.00 0.00 31 1021.0
20260901175806 88 150 1.0 9.0 0.00 0.00 0.00 31 1021.0
20260901175306 88 207 2.0 8.0 0.00 0.00 0.00 32 1021.1
20260901174806 88 260 3.0 8.0 0.00 0.00 0.00 31 1021.4
20260901174306 88 153 1.0 7.0 0.00 0.00 0.00 31 1021.4
20260901173806 87 126 0.0 3.0 0.00 0.00 0.00 33 1021.4
20260901173307 86 279 0.0 4.0 0.00 0.00 0.00 33 1021.4
20260901172804 86 238 1.0 6.0 0.00 0.00 0.00 33 1021.5
20260901172305 85 22 1.0 6.0 0.00 0.00 0.00 34 1021.6
20260901171803 85 97 0.0 3.0 0.00 0.00 0.00 34 1021.5
20260901171745 85 67 1.0 4.0 0.00 0.00 0.00 34 1021.7
20260901170802 85 101 2.0 5.0 0.00 0.00 0.00 34 1021.7
20260901170302 85 185 2.0 5.0 0.00 0.00 0.00 34 1021.8
20260901165801 85 218 1.0 5.0 0.00 0.00 0.00 34 1021.7
20260901165306 85 130 1.0 3.0 0.00 0.00 0.00 34 1021.7
20260901164801 84 127 0.0 3.0 0.00 0.00 0.00 35 1021.6
20260901164301 83 59 0.0 3.0 0.00 0.00 0.00 36 1021.6
20260901164026 83 61 0.0 2.0 0.00 0.00 0.00 37 1021.6